Regional Weather Roundup
Issued by NWS

Home | Current Version | Previous Version | Graphics & Text | Print | Product List | Glossary On
Versions: 1 2 3 4 5 6 7 8 9 10 11 12 13 14 15 16 17 18 19 20 21 22 23 24 25 26 27 28 29 30 31 32 33 34 35 36 37 38 39 40 41 42 43 44 45 46 47 48 49 50
000
ASUS45 KTFX 220519
RWRMT
MONTANA HOURLY WEATHER ROUNDUP
NATIONAL WEATHER SERVICE GREAT FALLS MT
1119 PM MDT TUE OCT 21 2014

NOTE: "FAIR" INDICATES FEW OR NO CLOUDS BELOW 12000 FEET WITH NO
SIGNIFICANT WEATHER AND/OR OBSTRUCTIONS TO VISIBILITY.

* THESE STATIONS ARE NOT UNDER NWS QUALITY CONTROL. THEY DO NOT
   REPORT WEATHER SUCH AS PRECIPITATION OR FOG.

MTZ001>007-043-220600-
WEST OF THE DIVIDE
CITY           SKY/WX    TMP DP  RH WIND       PRES   REMARKS
KALISPELL      CLOUDY    46  39  77 SE5       29.98R
MISSOULA       CLOUDY    45  43  93 E5        30.04S
BUTTE          CLOUDY    36  34  92 CALM      30.06R
MULLAN PASS    CLOUDY    36  34  92 SW7       30.01S WCI  30
* ESSEX        N/A       42  40  93 SE1        N/A
* LINCOLN      N/A       40  36  86 S5G11      N/A   WCI  36
* POLSON       N/A       41  39  93 SE2        N/A
* RONAN APT    PTCLDY    46  43  89 N/A        N/A
* SEELEY LAKE  N/A       39  38  96 N/A        N/A
* THOMP F APT  PTCLDY    37  28  70 E5G14      N/A   WCI  33
$$

MTZ008-052>055-220600-
SOUTHWEST MONTANA
CITY           SKY/WX    TMP DP  RH WIND       PRES   REMARKS
BOZEMAN        CLOUDY    37  36  96 CALM      30.03R
DILLON         LGT SNOW  36  30  79 SW12      30.06R WCI  28
W YELLOWSTONE  CLOUDY    32  32 100 CALM      30.09S
* THREE FORKS  MOCLDY    37  18  46 N/A        N/A
* BOULDER HILL N/A       39  30  70 S14G19     N/A   WCI  31
* MONIDA PASS  N/A       32  31  96 SE1        N/A
* RAYNOLDS PAS N/A       31  14  49 SE13       N/A   WCI  21
* WHITEHALL    N/A       40  35  82 W8G14      N/A   WCI  35
* WISE RIVER   N/A       37  31  79 NW5G10     N/A   WCI  33
$$

MTZ009>010-012-014-046-048-049-054-220600-
EAST SLOPES AND CENTRAL MONTANA
CITY           SKY/WX    TMP DP  RH WIND       PRES   REMARKS
CUT BANK       CLOUDY    45  34  65 W22       29.83R
GREAT FALLS    CLOUDY    45  37  74 SW12      29.88R
HELENA         CLOUDY    48  34  59 SW9       29.98R
MALMSTROM AFB  CLOUDY    45  39  80 SW16      29.89S
* CONRAD       CLOUDY    43  39  86 SW8        N/A
* DEARBORN     N/A       48  35  61 N3         N/A
* EAST GLACIER N/A       42  30  63 W15G25     N/A
* MONARCH      N/A       39  28  65 SW12G17    N/A   WCI  32
* PENDROY      N/A       44  30  58 W20G28     N/A
* ROGERS PASS  N/A       38  33  82 SE16G29    N/A   WCI  29
* SAINT MARY   N/A       45  31  58 S10G27     N/A
* SWEET GRASS  N/A       47  37  68 W18G25     N/A
* WHITE SULPH  N/A       41  31  68 N3G19      N/A
$$

MTZ011-013-016-021-035-040-045-047-050-051-220600-
NORTH CENTRAL MONTANA
CITY           SKY/WX    TMP DP  RH WIND       PRES   REMARKS
HAVRE          LGT RAIN  48  45  89 SW21      29.79S
LEWISTOWN      CLOUDY    43  37  79 SW12      29.88F
* CHINOOK      MOCLDY    52  45  77 SW13G22   29.78R
* FORT BENTON  CLOUDY    46  39  77 SW8       29.87R
* CHESTER      N/A       46  44  93 N/A        N/A
* DENTON       N/A       44  42  93 S7         N/A
* GEYSER       N/A       45  33  63 SW17G24    N/A
* JUDITH GAP   N/A       44  36  74 W19G24     N/A
* LOMA         N/A       48  43  83 SW8        N/A
$$

MTZ017>020-022>027-061-062-220600-
NORTHEAST MONTANA
CITY           SKY/WX    TMP DP  RH WIND       PRES   REMARKS
GLASGOW        MOCLDY    54  45  72 W15       29.71R
GLENDIVE       CLOUDY    54  48  80 W14       29.74R
JORDAN         CLOUDY    52  46  80 W13       29.78R
SIDNEY         MOCLDY    57  45  64 CALM      29.68R
WOLF POINT     CLOUDY    55  46  72 W13       29.68R
* BEAVER HILL  N/A       63  44  50 W11        N/A
* CIRCLE       N/A       56  47  72 SW16G28    N/A
* LINDSAY DVD  N/A       56  43  62 W20G26     N/A
* NAVAJO       N/A       59  43  56 NW12       N/A
$$

MTZ028>042-056>058-220600-
SOUTHCENTRAL AND SOUTHEAST MONTANA
CITY           SKY/WX    TMP DP  RH WIND       PRES   REMARKS
BAKER          CLOUDY    61  45  56 W14       29.75R
BILLINGS       PTCLDY    48  32  54 W22       29.92R
LIVINGSTON     MOCLDY    45  34  65 SW15      29.97R
MILES CITY     LGT RAIN  55  45  69 W14       29.81R
* LAUREL APT   CLEAR     52  28  40 W18G24     N/A
* ROUNDUP APT  PTCLDY    48  34  59 W11G16     N/A
* ALZADA       N/A       57  40  53 W4         N/A
* HYSHAM       N/A       50  29  44 W19G29     N/A
* LAME DEER    N/A       52  28  40 W15G23     N/A
* REED POINT   N/A       45  32  60 W12G18     N/A
* ROSCOE HILL  N/A       44  19  37 W5         N/A
$$

REGIONAL REPORTS...DAKOTAS
CITY           SKY/WX    TMP DP  RH WIND       PRES   REMARKS
WILLISTON      PTCLDY    48  41  77 CALM      29.60S
DICKINSON      PTCLDY    54  43  67 S7        29.63S
BEACH          N/A       59  45  60 NW12      29.69S
CROSBY         CLEAR     48  46  93 S9        29.59S
TIOGA          CLEAR     41  41 100 W5        29.63R
BISMARCK       CLEAR     66  39  37 S22       29.66F
GRAND FORKS    CLEAR     55  41  59 S22G29    29.85F
FARGO          CLEAR     55  41  59 SE22G37   29.91S
BUFFALO SD     PTCLDY    63  43  48 NW18      29.66R
RAPID CITY     PTCLDY    57  43  60 S5        29.77S
$$

REGIONAL REPORTS...WYOMING/IDAHO/WASHINGTON
CITY           SKY/WX    TMP DP  RH WIND       PRES   REMARKS
GILLETTE       LGT RAIN  61  36  39 N16       29.86R
SHERIDAN       CLOUDY    55  21  27 NW25G36   29.87R
CODY           CLEAR    N/A N/A N/A SW8       29.96R
YELLOWSTONE LA CLOUDY    28  28 100 CALM      30.11S
SALMON         MOCLDY   N/A N/A N/A N/A        N/A
MULLAN PASS    CLOUDY    36  34  92 SW7       30.01S WCI  30
SAND POINT     MOCLDY    45  45 100 S3        29.98R
SPOKANE        CLEAR     46  41  83 SE7       29.97S
$$

REGIONAL REPORTS...ALBERTA
CITY           SKY/WX    TMP DP  RH WIND       PRES   REMARKS
CALGARY        FAIR      45  28  51 S5        29.76R
LETHBRIDGE     MOCLDY    50  34  54 W21G29    29.78S
MEDICINE HAT   CLOUDY    48  46  93 SW5       29.72R
EDMONTON       MOCLDY    34  32  92 S6        29.70R WCI  29
WATERTON GATE  N/A       46  30  54 SW20G31    N/A
CARDSTON       N/A       48  32  54 W13G20     N/A
MILK RIVER     N/A       46  37  71 W14        N/A
$$

REGIONAL REPORTS...SASKATCHEWAN
CITY           SKY/WX    TMP DP  RH WIND       PRES   REMARKS
SWIFT CURRENT  CLEAR     48  43  83 W16       29.66S
REGINA         PTCLDY    48  43  83 S7        29.57R
VAL MARIE      N/A       48  43  83 W7         N/A
ASSINIBOIA     N/A       52  41  66 W14        N/A

$$




USA.gov is the U.S. government's official web portal to all federal, state and local government web resources and services.